CZ-3C DEB, 39341

Orbit data source: Space-Track

CZ-3C DEB, 39341 is space debris in HEO originally from a launch on Sun, 31 Oct 2010 UTC launched from the Xichang Space Center, China (XSC). Debris objects in space refer to the collection of defunct objects orbiting the Earth. Examples of debris include non-operational satellites, rocket bodies, and fragments generated from explosions, collisions, or faulty payload assembly.

Loading next visibility...
Identifier
39341, 2010-057F
Orbit
HEO
Country
Flag of CNCN / PRC
Related business
Manufacturer
CALT
Mission
Spacecraft
Bus & Motor
Unknown
Mass
Unknown
Launch date (UTC)
2010-10-31 (15 years ago)
Launch vehicle
Unknown
Launch site
Xichang Space Center, China (XSC)
Object type
Payload
Rocket body
Debris
Shape & HBR
Unknown shape, 0.3 m
Radar Cross Section
Medium (>0.1 m² and <1 m²)

Expand to show TLE details & history
Last TLE update: 17 hours ago

TLE from 17 hours ago
0 CZ-3C DEB
1 39341U 10057F   25346.66276762  .00033534  00000-0  32784-1 0  9998
2 39341  19.2021  67.4157 6730646 204.6943  96.6118  2.93827608114212
Epoch: 2025-12-12T15:54Z
TLE epoch observation values (Epoch: 2025-12-12T15:54:23.122Z)
Latitude
0.00007°
Longitude
107.21888°
Altitude
22,624.384 km
Speed
2.851 km/s
True Right ascension
04h 29m 39s
True Declination
0° 00' 00"
Sunlit
Object was in daylight at epoch
Visualization orbit readout
Latitude
Unknown
Longitude
Unknown
Altitude
Unknown
Speed
Unknown
Apparent Right ascension
Unknown
Apparent Declination
Unknown
Sunlit
N/A
Visualization observer readout
Local Sidereal Time
07:33:26
Azimuth
Unknown
Elevation
Unknown
Doppler factor
Unknown
Orbital elements
Apogee altitude
28,079.052 km
Perigee altitude
355.18 km
Semi-major axis
20,595.253 km
Eccentricity
0.67306
Inclination
19.2021°
RAAN
67.4157°
Arg. of periapsis
204.6943°
True anomaly
155.29485°
Mean anomaly
96.6118°
Eccentric anomaly
127.29165°
Mean motion
0.73433 °/min
Orbital period
490.24 mins
BSTAR
0.032784
Loading maneuver chart data...
Computing Atmospheric mass density...
Loading historical data...
Loading historical data...
Loading historical data...
Loading historical data...
Loading historical data...
Loading historical data...
Loading historical data...

Documentation

Showing up to 5 results
|